• In Hungary
  • List of Countries
  • For 7 days
  • Water Temperature
  • Satellite Maps
  • Weather Map
  • News
  • Weather Widgets
  • user-avatar
    Login

    Hourly Weather Durres

    Today, 20 November, Monday

    Time Temperature Precipitation Wind Pressure Humidity
    00:00 +10°C° 0.7 mm 6 mps 757 mmHg 91%
    01:00 +9°C° 0 mm 7 mps 757 mmHg 93%
    02:00 +9°C° 1 mm 7 mps 757 mmHg 90%
    03:00 +8°C° 1 mm 7 mps 757 mmHg 87%
    04:00 +7°C° 1 mm 8 mps 758 mmHg 84%
    05:00 +8°C° 0.2 mm 7 mps 758 mmHg 83%
    06:00 +6°C° 0.2 mm 7 mps 759 mmHg 81%
    07:00 +7°C° 0 mm 6 mps 759 mmHg 81%
    08:00 +8°C° 0 mm 6 mps 759 mmHg 72%
    09:00 +9°C° 0 mm 7 mps 760 mmHg 62%
    10:00 +11°C° 0 mm 7 mps 760 mmHg 53%
    11:00 +11°C° 0 mm 7 mps 761 mmHg 49%
    12:00 +11°C° 0 mm 7 mps 761 mmHg 44%
    13:00 +13°C° 0 mm 6 mps 761 mmHg 40%
    14:00 +11°C° 0 mm 6 mps 762 mmHg 45%
    15:00 +10°C° 0 mm 6 mps 762 mmHg 49%
    16:00 +9°C° 0 mm 6 mps 762 mmHg 53%
    17:00 +8°C° 0 mm 6 mps 762 mmHg 55%
    18:00 +7°C° 0 mm 5 mps 763 mmHg 57%
    19:00 +6°C° 0 mm 5 mps 763 mmHg 59%
    20:00 +6°C° 0 mm 5 mps 764 mmHg 59%
    21:00 +5°C° 0 mm 4 mps 764 mmHg 59%
    22:00 +5°C° 0 mm 3 mps 765 mmHg 59%
    23:00 +5°C° 0 mm 3 mps 765 mmHg 59%

    Tomorrow, 21 November, Tuesday

    Time Temperature Precipitation Wind Pressure Humidity
    00:00 +5°C° 0 mm 3 mps 765 mmHg 58%
    01:00 +5°C° 0 mm 3 mps 765 mmHg 58%
    02:00 +5°C° 0 mm 3 mps 765 mmHg 56%
    03:00 +4°C° 0 mm 3 mps 765 mmHg 54%
    04:00 +4°C° 0 mm 3 mps 765 mmHg 53%
    05:00 +4°C° 0 mm 3 mps 765 mmHg 51%
    06:00 +4°C° 0 mm 3 mps 765 mmHg 50%
    07:00 +6°C° 0 mm 2 mps 765 mmHg 49%
    08:00 +7°C° 0 mm 2 mps 765 mmHg 44%
    09:00 +9°C° 0 mm 2 mps 765 mmHg 39%
    10:00 +12°C° 0 mm 2 mps 765 mmHg 34%
    11:00 +13°C° 0 mm 2 mps 765 mmHg 34%
    12:00 +13°C° 0 mm 2 mps 765 mmHg 34%
    13:00 +14°C° 0 mm 1 mps 764 mmHg 34%
    14:00 +13°C° 0 mm 1 mps 764 mmHg 40%
    15:00 +12°C° 0 mm 1 mps 764 mmHg 46%
    16:00 +11°C° 0 mm 1 mps 764 mmHg 51%
    17:00 +9°C° 0 mm 2 mps 765 mmHg 52%
    18:00 +8°C° 0 mm 2 mps 765 mmHg 53%
    19:00 +8°C° 0 mm 2 mps 765 mmHg 54%
    20:00 +8°C° 0 mm 2 mps 765 mmHg 55%
    21:00 +7°C° 0 mm 2 mps 765 mmHg 56%
    22:00 +7°C° 0 mm 2 mps 766 mmHg 57%
    23:00 +7°C° 0 mm 2 mps 766 mmHg 58%

    Day after tomorrow, 22 November, Wednesday

    Time Temperature Precipitation Wind Pressure Humidity
    00:00 +7°C° 0 mm 2 mps 766 mmHg 59%
    01:00 +7°C° 0 mm 2 mps 766 mmHg 61%
    02:00 +7°C° 0 mm 2 mps 765 mmHg 61%
    03:00 +7°C° 0 mm 2 mps 765 mmHg 62%
    04:00 +7°C° 0 mm 2 mps 765 mmHg 63%
    05:00 +7°C° 0 mm 2 mps 765 mmHg 63%
    06:00 +7°C° 0 mm 2 mps 765 mmHg 64%
    07:00 +7°C° 0 mm 2 mps 765 mmHg 64%
    08:00 +9°C° 0 mm 2 mps 766 mmHg 60%
    09:00 +12°C° 0 mm 2 mps 766 mmHg 56%
    10:00 +14°C° 0 mm 2 mps 766 mmHg 52%
    11:00 +15°C° 0 mm 2 mps 765 mmHg 52%
    12:00 +15°C° 0 mm 2 mps 765 mmHg 52%
    13:00 +16°C° 0 mm 1 mps 765 mmHg 52%
    14:00 +15°C° 0 mm 1 mps 765 mmHg 59%
    15:00 +14°C° 0 mm 1 mps 765 mmHg 65%
    16:00 +13°C° 0 mm 1 mps 765 mmHg 71%
    17:00 +12°C° 0 mm 1 mps 765 mmHg 72%
    18:00 +12°C° 0 mm 1 mps 765 mmHg 74%
    19:00 +11°C° 0 mm 1 mps 765 mmHg 75%
    20:00 +11°C° 0 mm 1 mps 765 mmHg 75%
    21:00 +10°C° 0 mm 2 mps 766 mmHg 74%
    22:00 +10°C° 0 mm 2 mps 766 mmHg 73%
    23:00 +10°C° 0 mm 2 mps 766 mmHg 72%

    23 November, Thursday

    Time Temperature Precipitation Wind Pressure Humidity
    00:00 +10°C° 0 mm 1 mps 766 mmHg 71%
    01:00 +10°C° 0 mm 1 mps 765 mmHg 70%
    02:00 +10°C° 0 mm 1 mps 765 mmHg 69%
    03:00 +10°C° 0 mm 1 mps 765 mmHg 69%
    04:00 +10°C° 0 mm 1 mps 765 mmHg 69%
    05:00 +9°C° 0 mm 2 mps 765 mmHg 69%
    06:00 +9°C° 0 mm 2 mps 765 mmHg 69%
    07:00 +9°C° 0 mm 2 mps 765 mmHg 68%
    08:00 +12°C° 0 mm 2 mps 765 mmHg 62%
    09:00 +14°C° 0 mm 1 mps 766 mmHg 55%
    10:00 +16°C° 0 mm 1 mps 766 mmHg 49%
    11:00 +18°C° 0 mm 1 mps 765 mmHg 48%
    12:00 +18°C° 0 mm 1 mps 765 mmHg 47%
    13:00 +19°C° 0 mm 1 mps 765 mmHg 47%
    14:00 +16°C° 0 mm 1 mps 765 mmHg 54%
    15:00 +15°C° 0 mm 1 mps 765 mmHg 60%
    16:00 +14°C° 0 mm 1 mps 765 mmHg 67%
    17:00 +13°C° 0 mm 1 mps 765 mmHg 68%
    18:00 +13°C° 0 mm 1 mps 766 mmHg 69%
    19:00 +12°C° 0 mm 1 mps 766 mmHg 70%
    20:00 +12°C° 0 mm 1 mps 766 mmHg 69%
    21:00 +11°C° 0 mm 1 mps 766 mmHg 67%
    22:00 +11°C° 0 mm 1 mps 767 mmHg 65%
    23:00 +11°C° 0 mm 1 mps 767 mmHg 64%

    24 November, Friday

    Time Temperature Precipitation Wind Pressure Humidity
    00:00 +11°C° 0 mm 1 mps 766 mmHg 63%
    01:00 +11°C° 0 mm 1 mps 766 mmHg 62%
    02:00 +11°C° 0 mm 1 mps 766 mmHg 61%
    03:00 +10°C° 0 mm 1 mps 766 mmHg 61%
    04:00 +10°C° 0 mm 1 mps 766 mmHg 60%
    05:00 +10°C° 0 mm 1 mps 766 mmHg 59%
    06:00 +10°C° 0 mm 1 mps 766 mmHg 59%
    07:00 +10°C° 0 mm 1 mps 766 mmHg 58%
    08:00 +12°C° 0 mm 1 mps 766 mmHg 53%
    09:00 +14°C° 0 mm 1 mps 767 mmHg 49%
    10:00 +16°C° 0 mm 1 mps 767 mmHg 44%
    11:00 +17°C° 0 mm 2 mps 766 mmHg 46%
    12:00 +17°C° 0 mm 2 mps 766 mmHg 47%
    13:00 +18°C° 0 mm 3 mps 766 mmHg 48%
    14:00 +16°C° 0 mm 3 mps 766 mmHg 57%
    15:00 +14°C° 0 mm 3 mps 766 mmHg 66%
    16:00 +13°C° 0 mm 3 mps 766 mmHg 75%
    17:00 +12°C° 0 mm 3 mps 766 mmHg 76%
    18:00 +11°C° 0 mm 3 mps 766 mmHg 78%
    19:00 +11°C° 0 mm 3 mps 767 mmHg 79%
    20:00 +11°C° 0 mm 3 mps 767 mmHg 76%
    21:00 +12°C° 0 mm 2 mps 767 mmHg 73%
    22:00 +10°C° 0 mm 2 mps 767 mmHg 70%
    23:00 +10°C° 0 mm 2 mps 767 mmHg 68%

    25 November, Saturday

    Time Temperature Precipitation Wind Pressure Humidity
    00:00 +10°C° 0 mm 2 mps 767 mmHg 66%
    01:00 +10°C° 0 mm 2 mps 767 mmHg 65%
    02:00 +10°C° 0 mm 2 mps 767 mmHg 64%
    03:00 +10°C° 0 mm 2 mps 767 mmHg 63%
    04:00 +10°C° 0 mm 2 mps 767 mmHg 62%
    05:00 +9°C° 0 mm 2 mps 767 mmHg 62%
    06:00 +9°C° 0 mm 2 mps 768 mmHg 63%
    07:00 +9°C° 0 mm 2 mps 768 mmHg 63%
    08:00 +12°C° 0 mm 1 mps 768 mmHg 58%
    09:00 +15°C° 0 mm 1 mps 768 mmHg 53%
    10:00 +18°C° 0 mm 1 mps 768 mmHg 47%
    11:00 +18°C° 0 mm 1 mps 768 mmHg 46%
    12:00 +19°C° 0 mm 1 mps 767 mmHg 45%
    13:00 +20°C° 0 mm 1 mps 767 mmHg 44%
    14:00 +18°C° 0 mm 1 mps 767 mmHg 51%
    15:00 +16°C° 0 mm 1 mps 767 mmHg 58%
    16:00 +15°C° 0 mm 1 mps 767 mmHg 65%
    17:00 +14°C° 0 mm 1 mps 767 mmHg 66%
    18:00 +13°C° 0 mm 1 mps 768 mmHg 68%
    19:00 +13°C° 0 mm 1 mps 768 mmHg 70%
    20:00 +12°C° 0 mm 1 mps 768 mmHg 70%
    21:00 +12°C° 0 mm 1 mps 768 mmHg 70%
    22:00 +12°C° 0 mm 1 mps 769 mmHg 70%
    23:00 +12°C° 0 mm 1 mps 769 mmHg 69%
    Show more